Regional Weather Roundup
Issued by NWS

Home | Current Version | Previous Version | Graphics & Text | Print | Product List | Glossary On
Versions: 1 2 3 4 5 6 7 8 9 10 11 12 13 14 15 16 17 18 19 20 21 22 23 24 25 26 27 28 29 30 31 32 33 34 35 36 37 38 39 40 41 42 43 44 45 46 47 48 49 50
070
ASUS45 KTFX 280710
RWRMT
MONTANA REGIONAL WEATHER ROUNDUP
NATIONAL WEATHER SERVICE GREAT FALLS MT
100 AM MDT TUE MAR 28 2017

NOTE: "FAIR" INDICATES FEW OR NO CLOUDS BELOW 12000 FEET WITH NO
SIGNIFICANT WEATHER AND/OR OBSTRUCTIONS TO VISIBILITY.

MTZ001>007-043-280800-
WEST OF THE DIVIDE

CITY           SKY/WX    TMP DP  RH WIND       PRES   REMARKS
KALISPELL      CLOUDY    37  33  85 S7        30.12R WCI  32
MISSOULA       CLOUDY    36  33  89 N6        30.17S WCI  31
BUTTE          CLOUDY    31  24  75 W6        30.11R WCI  25
MULLAN PASS    MOCLDY    27  27 100 VRB5      30.11R
ANACONDA         N/A     34  27  75 CALM      30.13S
DEER LODGE       N/A     30  28  93 N6        30.15F WCI  24
EUREKA           N/A     41  30  65 SE6       30.11R
HAMILTON         N/A     37  27  65 S3        30.17R
RONAN            N/A     40  34  79 CALM      30.17R
$$

MTZ008-052>055-280800-
SOUTHWEST MONTANA

CITY           SKY/WX    TMP DP  RH WIND       PRES   REMARKS
BOZEMAN        CLOUDY    40  31  70 W3        30.09R
DILLON         CLOUDY    31  25  78 E7        30.09R WCI  24
W YELLOWSTONE  CLOUDY    28  28 100 S3        30.06R
ENNIS          CLOUDY    34  32  93 CALM      30.13R
THREE FORKS      N/A     41  41 100 NW7       30.08R
$$

MTZ009-010-012-014-046-048-049-054-280800-
EAST SLOPES AND CENTRAL MONTANA

CITY           SKY/WX    TMP DP  RH WIND       PRES   REMARKS
CUT BANK       CLEAR     36  24  62 W15       29.99S WCI  27
GREAT FALLS    PTCLDY    36  28  73 SW13      30.04R WCI  27
MALMSTROM AFB  CLOUDY    41  35  80 SW13      30.05R
HELENA         CLOUDY    39  26  59 W6        30.09R
AUGUSTA          N/A     36  20  51 W16G22    30.02S WCI  27
BOWMANS CRNR     N/A     31  24  77 S8        30.03S WCI  23
CHOTEAU          N/A     37  21  52 W14       30.04R WCI  29
CONRAD           N/A     35  26  70 SW5       30.03S
FAIRFIELD        N/A     34  23  64 W8        30.02S WCI  27
POWER            N/A     28  24  87 S7        30.02R WCI  20
RAYNESFORD     CLOUDY    40  35  85 CALM      30.05R
$$

MTZ011-013-016-021-045-047-050-051-280800-
NORTH CENTRAL MONTANA

CITY           SKY/WX    TMP DP  RH WIND       PRES   REMARKS
HAVRE          CLOUDY    35  33  92 W8        30.01R WCI  29
LEWISTOWN      CLOUDY    41  33  73 W5        30.03R
N BAR RANCH    CLOUDY    43  32  65 NW9G18    30.03R
CHINOOK          N/A     36  34  93 SW3       30.00R
DENTON         MOCLDY    41  34  77 W17G25    29.98R
FORT BENTON      N/A     43  30  61 MISG      30.04R
GEYSER         CLOUDY    40  35  81 SW10      30.03R
GRASS RANGE    CLOUDY    44  33  67 W16       29.97R
JUDITH GAP     DRIZZLE   39  34  82 NE3       30.02R
STANFORD       LGT RAIN  38  35  89 W20       30.03R WCI  28
WINIFRED       MOCLDY    40  33  74 W8        30.00R
$$

MTZ017>020-022>027-061-062-280800-
NORTHEAST MONTANA

CITY           SKY/WX    TMP DP  RH WIND       PRES   REMARKS
GLASGOW        CLOUDY    38  33  82 E12       29.96S WCI  30
JORDAN           N/A     36  31  82 W3        29.95R
SIDNEY         PTCLDY    38  35  89 NE8       29.98S
WOLF POINT     PTCLDY    38  35  89 E9        29.99R WCI  31
MALTA          MOCLDY    37  34  87 E3        29.97S
PLENTYWOOD       N/A     36  36 100 NE17      30.00S WCI  25
POPLAR           N/A     36  34  93 NE13      29.99S WCI  27
$$

MTZ028>42-056>058-280800-
SOUTHCENTRAL AND SOUTHEAST MONTANA

CITY           SKY/WX    TMP DP  RH WIND       PRES   REMARKS
BAKER          CLEAR     40  34  79 S12       29.95S
BILLINGS       LGT RAIN  45  41  86 W9        30.01R
LIVINGSTON     CLOUDY    40  33  76 SW15      30.06R
MILES CITY     CLEAR     42  34  73 NE7       29.92S
BIG TIMBER     CLOUDY    39  34  81 SW14G29   30.06S WCI  31
FORSYTH          N/A     43  37  81 CALM      29.93R
HARLOWTON      LGT RAIN  40  37  91 W9        30.03R
LAUREL           N/A     43  33  67 W7        30.00F
$$

REGIONAL REPORTS...DAKOTAS

CITY           SKY/WX    TMP DP  RH WIND       PRES   REMARKS
WILLISTON      CLOUDY    39  36  89 E7        30.01S
MINOT          FOG       36  35  96 N9        30.07R VSB 1/4 WCI  29
DICKINSON      CLEAR     34  29  82 SE9       29.96S WCI  27
BEACH            N/A    N/A N/A N/A MISG        N/A
TIOGA          CLOUDY    34  34 100 E17       30.04S FOG     WCI  23
WATFORD CITY     N/A     37  36  93 E9        30.01S WCI  31
BISMARCK       CLEAR     38  33  82 NE7       30.03R
GRAND FORKS    CLOUDY    35  35 100 NW10      30.11R WCI  27
FARGO          FOG       37  37 100 N10       30.08R VSB 1/4 WCI  30
BUFFALO SD       N/A     42  34  73 SE5       29.90S
RAPID CITY     CLOUDY    39  32  76 N8        29.95R
$$

REGIONAL REPORTS...WYOMING/IDAHO/WASHINGTON

CITY           SKY/WX    TMP DP  RH WIND       PRES   REMARKS
GILLETTE       CLOUDY    36  33  89 S5        29.92R
SHERIDAN       CLOUDY    44  37  76 W7        29.93S
BUFFALO WY     CLOUDY    45  34  65 W10       29.95R
CODY           LGT RAIN  40  36  86 N12       30.00R
YELLOWSTONE LA   N/A     28  27  96 CALM      30.04R
IDAHO FALLS    CLOUDY    37  37 100 W6        30.07R
SALMON         CLEAR     34  21  60 CALM      30.15R
BOISE          CLEAR     41  32  70 NW10      30.18S
SPOKANE        PTCLDY    38  34  85 S12       30.15R WCI  30
$$

REGIONAL REPORTS...ALBERTA

CITY           SKY/WX    TMP DP  RH WIND       PRES   REMARKS
EDMONTON       CLEAR     30  28  93 E3        29.91F
CALGARY        PTCLDY    37  28  70 SW3       29.91S
LETHBRIDGE     CLEAR     36  27  69 SW15      29.95R WCI  26
MEDICINE HAT   PTCLDY    45  30  57 S18G25    29.91S
WATERTON GATE    N/A     37  25  60 SW16G26     N/A  WCI  28
CARDSTON         N/A     37  23  56 W7          N/A
MILK RIVER       N/A     34  27  75 NW5         N/A
$$

REGIONAL REPORTS...SASKATCHEWAN

CITY           SKY/WX    TMP DP  RH WIND       PRES   REMARKS
SWIFT CURRENT  CLOUDY    34  32  93 S7        29.98R WCI  28
REGINA         CLOUDY    36  36 100 SE14      30.06F WCI  27
SASKATOON      CLOUDY    36  32  87 SE12G17   30.07S WCI  27
CYPRESS HILLS    N/A     34  32  93 SE6         N/A  WCI  29
VAL MARIE        N/A     36  30  80 NW3         N/A
ROCKGLEN         N/A     36  34  93 E5          N/A
ASSINIBOIA       N/A     34  32  93 SE6         N/A  WCI  29
$$




USA.gov is the U.S. government's official web portal to all federal, state and local government web resources and services.